Weather in Kulada

Russia / Altai Republic     50°41′16″N   85°47′11″E
temp.,
°C
wind,
m/s
gust,
m/s
humid.,
%
clouds,
%
prec.,
mm/h
press.,
hPa
HPBL,
m
11 april, sun
sun1101:00−6n119587 0.0 1035102
04:00−5ne128890 0.1 1035284
07:00−6ene118749 0.1 103748
10:00−1ene22614 0.0 1035567
13:00+4ne23400 0.0 1032963
16:00+6ne24330 0.0 10311180
19:00+3n22550 0.0 103235
22:00−3ssw11864 0.0 103812
12 april, mon
mon1201:00−4s11855 0.0 103812
04:00−5s11865 0.0 103712
07:00−4s11815 0.0 103814
10:00+3ne11469 0.0 1034387
13:00+8ne21315 0.0 1030768
16:00+10n21315 0.0 1029975
19:00+7nw11526 0.0 102929
22:00+1sw22695 0.0 103215
13 april, tue
tue1301:00+1sw11685 0.0 103110
04:000sw117159 0.0 103110
07:000sw117269 0.0 103010
10:00+7nw115089 0.0 1027443
13:00+9nw3442100 0.0 10251423
16:00+8nw3549100 0.0 10271272
19:00+5nnw33573 0.0 1029959
22:000nnw11875 0.0 103318
14 april, wed
wed1401:00−2wnw11935 0.0 103410
04:00−3s11948 0.0 103510
07:00−3se00898 0.0 103515
10:00+3n11485 0.0 1032434
13:00+7n21303 0.0 1028980
16:00+9nnw223173 0.0 10261297
19:00+7nw22415 0.0 1026371
22:00+2wsw11645 0.0 102810
15 april, thu
thu1501:000sw11675 0.0 102711
04:00−1ssw11685 0.0 102610
07:00−1s00635 0.0 102610
10:00+6ne11421 0.0 1022431
13:00+11n22275 0.0 10181201
16:00+12nnw22275 0.0 10171697
19:00+10nnw22375 0.0 1017351
22:00+4ssw11605 0.0 101911